Total_Precipitation_Accumulation
0.00 0.00 0.00 0.00 0.00 0.00 0.00 0.00 0.00 0.00 0.00 0.00 0.00 0.00 0.00 0.00 0.00 0.00 0.00 0.00 0.00 0.01 0.01 0.01 0.01 0.01 0.01 0.01 0.00 0.00 0.00 0.00 0.01 0.01 0.01 0.02 0.03 0.03 0.02 0.02 0.06 0.10 0.03
0.00 0.00 0.00 0.00 0.00 0.00 0.00 0.00 0.00 0.00 0.00 0.00 0.00 0.00 0.00 0.00 0.00 0.00 0.00 0.00 0.00 0.00 0.00 0.00 0.00 0.00 0.00 0.00 0.00 0.00 0.00 0.00 0.01 0.00 0.01 0.02 0.04 0.06 0.03 0.00 0.04 0.06 0.01
0.00 0.00 0.00 0.00 0.00 0.00 0.00 0.00 0.00 0.00 0.00 0.00 0.00 0.00 0.00 0.00 0.00 0.00 0.00 0.00 0.00 0.00 0.00 0.00 0.00 0.00 0.00 0.00 0.00 0.00 0.00 0.00 0.00 0.00 0.01 0.02 0.01 0.03 0.03 0.00 0.00 0.01 0.01
0.00 0.00 0.00 0.00 0.00 0.00 0.00 0.00 0.00 0.00 0.00 0.00 0.00 0.00 0.00 0.00 0.00 0.00 0.00 0.00 0.00 0.00 0.00 0.00 0.00 0.00 0.00 0.00 0.00 0.00 0.00 0.00 0.00 0.00 0.03 0.13 0.03 0.02 0.02 0.00 0.00 0.00 0.00
0.00 0.00 0.00 0.00 0.00 0.00 0.00 0.00 0.00 0.00 0.01 0.01 0.00 0.00 0.00 0.00 0.00 0.00 0.00 0.00 0.00 0.00 0.00 0.00 0.00 0.00 0.00 0.00 0.00 0.00 0.00 0.00 0.00 0.00 0.03 0.12 0.08 0.04 0.03 0.01 0.00 0.00 0.00
0.00 0.00 0.00 0.00 0.00 0.00 0.00 0.00 0.01 0.01 0.01 0.01 0.00 0.00 0.00 0.00 0.00 0.01 0.00 0.00 0.00 0.00 0.00 0.00 0.00 0.00 0.00 0.00 0.00 0.01 0.00 0.00 0.00 0.01 0.02 0.06 0.13 0.12 0.12 0.09 0.03 0.01 0.00
0.00 0.00 0.00 0.00 0.00 0.00 0.00 0.00 0.00 0.00 0.01 0.00 0.00 0.00 0.00 0.00 0.01 0.00 0.00 0.00 0.00 0.00 0.00 0.00 0.00 0.00 0.00 0.00 0.00 0.01 0.01 0.01 0.01 0.03 0.04 0.07 0.17 0.21 0.38 0.41 0.25 0.12 0.04
0.00 0.00 0.00 0.00 0.00 0.00 0.00 0.00 0.00 0.00 0.00 0.00 0.00 0.00 0.00 0.00 0.01 0.01 0.00 0.01 0.00 0.00 0.00 0.00 0.00 0.00 0.00 0.01 0.01 0.03 0.06 0.05 0.04 0.07 0.09 0.11 0.16 0.23 0.55 0.66 0.53 0.40 0.26
0.00 0.00 0.00 0.01 0.01 0.01 0.01 0.01 0.01 0.01 0.01 0.00 0.00 0.00 0.00 0.00 0.01 0.01 0.01 0.01 0.02 0.02 0.01 0.01 0.00 0.01 0.01 0.02 0.05 0.10 0.12 0.09 0.06 0.08 0.06 0.09 0.14 0.22 0.54 0.56 0.46 0.43 0.35
0.00 0.00 0.01 0.01 0.01 0.01 0.01 0.01 0.01 0.01 0.01 0.01 0.01 0.01 0.01 0.01 0.00 0.01 0.01 0.01 0.01 0.02 0.02 0.02 0.02 0.03 0.03 0.05 0.10 0.11 0.10 0.05 0.06 0.07 0.03 0.04 0.12 0.30 0.51 0.52 0.46 0.44 0.38
0.00 0.00 0.00 0.01 0.01 0.01 0.01 0.01 0.02 0.02 0.02 0.02 0.02 0.01 0.01 0.01 0.01 0.03 0.03 0.04 0.04 0.06 0.07 0.07 0.09 0.12 0.12 0.11 0.14 0.15 0.11 0.11 0.14 0.04 0.03 0.04 0.15 0.33 0.46 0.52 0.51 0.47 0.43
0.00 0.00 0.01 0.01 0.01 0.01 0.01 0.02 0.02 0.03 0.03 0.03 0.03 0.05 0.06 0.08 0.06 0.04 0.09 0.13 0.16 0.24 0.25 0.25 0.31 0.28 0.19 0.09 0.16 0.37 0.14 0.13 0.12 0.08 0.12 0.10 0.19 0.33 0.45 0.48 0.45 0.42 0.39
0.01 0.01 0.01 0.01 0.01 0.02 0.02 0.01 0.03 0.06 0.13 0.14 0.14 0.18 0.21 0.23 0.16 0.10 0.14 0.21 0.28 0.38 0.36 0.47 0.57 0.37 0.29 0.26 0.24 0.29 0.20 0.19 0.16 0.18 0.19 0.23 0.33 0.46 0.52 0.47 0.44 0.44 0.41
0.04 0.05 0.06 0.05 0.03 0.03 0.03 0.03 0.04 0.06 0.11 0.14 0.13 0.17 0.28 0.25 0.24 0.23 0.22 0.22 0.28 0.36 0.52 0.55 0.55 0.56 0.57 0.46 0.38 0.34 0.36 0.38 0.32 0.32 0.32 0.35 0.48 0.58 0.63 0.51 0.42 0.41 0.40
0.10 0.17 0.20 0.18 0.14 0.10 0.08 0.08 0.08 0.09 0.11 0.12 0.19 0.24 0.31 0.35 0.41 0.48 0.41 0.37 0.33 0.46 0.66 0.80 0.70 0.69 0.75 0.65 0.53 0.47 0.46 0.44 0.40 0.36 0.34 0.40 0.41 0.46 0.54 0.53 0.47 0.41 0.38
0.19 0.30 0.35 0.38 0.39 0.37 0.33 0.25 0.23 0.22 0.23 0.28 0.38 0.46 0.64 0.70 0.71 0.71 0.62 0.57 0.45 0.55 0.72 0.80 0.74 0.78 0.72 0.70 0.56 0.51 0.45 0.42 0.38 0.39 0.39 0.36 0.37 0.34 0.37 0.43 0.46 0.45 0.44
0.36 0.48 0.59 0.66 0.78 0.89 0.87 0.73 0.62 0.52 0.54 0.63 0.79 0.94 1.12 1.19 1.17 1.14 0.97 0.74 0.69 0.83 0.85 0.78 0.72 0.85 0.68 0.62 0.52 0.59 0.55 0.49 0.38 0.32 0.31 0.29 0.26 0.27 0.27 0.30 0.39 0.47 0.55
0.68 0.85 1.01 1.17 1.39 1.53 1.41 1.22 1.16 1.13 1.17 1.11 1.16 1.27 1.29 1.29 1.28 1.36 1.06 0.80 0.90 1.04 0.98 0.88 0.85 0.92 0.79 0.76 0.68 0.63 0.51 0.40 0.26 0.19 0.17 0.14 0.17 0.14 0.18 0.29 0.35 0.41 0.61
1.22 1.44 1.66 1.97 2.13 2.01 1.82 1.66 1.59 1.51 1.38 1.19 1.00 0.94 0.89 0.83 0.82 0.83 0.53 0.45 0.64 0.73 0.64 0.62 0.76 0.80 0.74 0.80 0.78 0.53 0.36 0.23 0.15 0.11 0.09 0.07 0.09 0.11 0.12 0.22 0.27 0.37 0.62
1.63 2.15 2.58 2.64 2.34 2.05 1.79 1.58 1.48 1.32 1.18 1.01 0.77 0.64 0.54 0.45 0.43 0.45 0.26 0.24 0.48 0.54 0.47 0.57 0.61 0.58 0.48 0.54 0.50 0.25 0.18 0.13 0.10 0.09 0.07 0.06 0.08 0.09 0.11 0.14 0.17 0.23 0.46
2.23 2.91 3.13 2.73 2.32 1.92 1.64 1.38 1.13 0.92 0.83 0.72 0.53 0.43 0.39 0.35 0.34 0.40 0.27 0.28 0.42 0.43 0.37 0.40 0.43 0.35 0.24 0.40 0.42 0.19 0.07 0.04 0.06 0.05 0.04 0.03 0.04 0.06 0.09 0.14 0.17 0.22 0.21
2.19 2.66 2.65 2.21 1.77 1.30 1.01 0.91 0.79 0.65 0.55 0.42 0.33 0.30 0.25 0.25 0.27 0.32 0.25 0.18 0.23 0.24 0.18 0.19 0.29 0.30 0.25 0.39 0.44 0.31 0.12 0.06 0.04 0.03 0.03 0.03 0.04 0.08 0.11 0.14 0.21 0.29 0.31
2.03 1.92 1.77 1.34 0.86 0.64 0.48 0.46 0.41 0.37 0.36 0.27 0.20 0.18 0.16 0.16 0.15 0.15 0.14 0.13 0.18 0.25 0.23 0.23 0.27 0.29 0.23 0.23 0.32 0.36 0.22 0.08 0.05 0.06 0.08 0.08 0.10 0.16 0.21 0.24 0.28 0.30 0.37
1.51 1.17 0.88 0.68 0.44 0.31 0.29 0.31 0.32 0.28 0.28 0.23 0.19 0.18 0.16 0.14 0.13 0.13 0.11 0.09 0.12 0.18 0.18 0.15 0.17 0.20 0.20 0.15 0.18 0.24 0.25 0.22 0.18 0.09 0.09 0.13 0.17 0.24 0.32 0.39 0.45 0.42 0.42
0.83 0.67 0.53 0.45 0.34 0.34 0.34 0.37 0.38 0.28 0.22 0.20 0.19 0.17 0.17 0.19 0.18 0.17 0.15 0.12 0.10 0.11 0.10 0.10 0.10 0.12 0.13 0.11 0.11 0.16 0.27 0.33 0.35 0.26 0.15 0.14 0.17 0.19 0.29 0.39 0.50 0.53 0.48
0.34 0.35 0.36 0.40 0.44 0.41 0.34 0.31 0.31 0.26 0.22 0.20 0.17 0.17 0.18 0.20 0.22 0.23 0.22 0.20 0.19 0.16 0.13 0.12 0.12 0.12 0.13 0.13 0.14 0.17 0.23 0.31 0.36 0.39 0.32 0.24 0.23 0.24 0.29 0.40 0.63 0.75 0.67